Montpelier, VT

12:57 PM EST on February 20, 2018 (GMT -0500)
Knapp State

Weather History for KMPV - July, 2013

Change the Weather History Date:

Monday, July 1, 2013

  Actual Average Record
Temperature  
Mean Temperature 65 °F 66 °F  
Max Temperature 71 °F 78 °F 89 °F (1968)
Min Temperature 59 °F 55 °F 41 °F (1965)
Degree Days  
Heating Degree Days 0 2  
Month to date heating degree days 2  
Since 1 June heating degree days 123  
Since 1 July heating degree days 2  
Cooling Degree Days 0 3  
Month to date cooling degree days 0 3  
Year to date cooling degree days 79 66  
Since 1 June cooling degree days 68 56  
Growing Degree Days 16 (Base 50)    
Moisture  
Dew Point 64 °F    
Average Humidity 89    
Maximum Humidity 100    
Minimum Humidity 78    
Precipitation  
Precipitation 0.43 in 0.11 in 1.35 in (2017)
Month to date precipitation 0.43 0.11  
Year to date precipitation 18.05 16.82  
Sea Level Pressure  
Sea Level Pressure 30.07 in    
Wind  
Wind Speed 2 mph (NNW)    
Max Wind Speed 9 mph    
Max Gust Speed 18 mph    
Visibility 7 miles    
Events Fog , Rain    
T = Trace of Precipitation, MM = Missing Value Source: NWS Daily Summary

Daily Weather History Graph

Daily Weather History Graph

Search for Another Location

Airport or City:

Trip Planner

Search our weather history database for the weather conditions in past years. The results will help you decide how hot, cold, wet, or windy it might be!

Date:

Astronomy

Jul. 01, 2013 Rise Set
Actual Time 5:10 AM EDT 8:37 PM EDT
Civil Twilight 4:34 AM EDT 9:13 PM EDT
Nautical Twilight 3:46 AM EDT 10:01 PM EDT
Astronomical Twilight 2:46 AM EDT 11:01 PM EDT
Moon 12:47 AM EDT (7/1) 2:42 PM EDT (7/1)
Length of Visible Light 16h 39m
Length of Day
15h 26m
Waning Crescent, 35% of the Moon is Illuminated
Jul 1
Waning Crescent
Jul 8
New
Jul 15
First Quarter
Jul 22
Full
Jul 29
Last Quarter

Hourly Weather History & Observations

Time (EDT) Temp. Dew Point Humidity Pressure Visibility Wind Dir Wind Speed Gust Speed Precip Events Conditions
12:11 AM 66.2 °F 66.2 °F 100% 29.99 in 8.0 mi Calm Calm - N/A   Overcast
12:47 AM 66.2 °F 66.2 °F 100% 29.99 in 7.0 mi Calm Calm - N/A   Overcast
12:51 AM 66.9 °F 66.0 °F 97% 29.98 in 6.0 mi Calm Calm - N/A   Overcast
1:23 AM 66.2 °F 66.2 °F 100% 30.00 in 4.0 mi Calm Calm - N/A   Overcast
1:51 AM 66.0 °F 66.0 °F 100% 29.99 in 3.0 mi WNW 3.5 mph - N/A   Overcast
2:00 AM 66.2 °F 64.4 °F 94% 30.00 in 2.5 mi Calm Calm - N/A   Mostly Cloudy
2:05 AM 66.2 °F 66.2 °F 100% 29.99 in 1.2 mi Calm Calm - N/A   Mostly Cloudy
2:07 AM 66.2 °F 66.2 °F 100% 29.99 in 0.8 mi Calm Calm - N/A   Mostly Cloudy
2:15 AM 66.2 °F 66.2 °F 100% 30.00 in 0.2 mi Calm Calm - N/A Fog Fog
2:39 AM 64.4 °F 64.4 °F 100% 30.00 in 1.2 mi Calm Calm - N/A   Overcast
2:41 AM 64.4 °F 64.4 °F 100% 30.00 in 2.0 mi Calm Calm - N/A   Overcast
2:49 AM 64.4 °F 64.4 °F 100% 30.00 in 6.0 mi Calm Calm - N/A   Overcast
2:51 AM 64.9 °F 64.9 °F 100% 29.99 in 6.0 mi Calm Calm - N/A   Overcast
3:23 AM 64.4 °F 64.4 °F 100% 30.01 in 10.0 mi NNW 3.5 mph - N/A   Overcast
3:51 AM 64.9 °F 64.0 °F 97% 30.00 in 10.0 mi Calm Calm - N/A   Overcast
4:10 AM 64.4 °F 64.4 °F 100% 30.01 in 10.0 mi Calm Calm - N/A   Overcast
4:27 AM 64.4 °F 64.4 °F 100% 30.02 in 9.0 mi Calm Calm - N/A   Overcast
4:42 AM 64.4 °F 64.4 °F 100% 30.02 in 7.0 mi Calm Calm - N/A   Overcast
4:51 AM 64.9 °F 64.0 °F 97% 30.00 in 9.0 mi Calm Calm - N/A   Overcast
5:51 AM 64.9 °F 64.0 °F 97% 30.02 in 6.0 mi Calm Calm - N/A   Overcast
6:51 AM 66.0 °F 64.9 °F 96% 30.05 in 8.0 mi Calm Calm - N/A   Overcast
7:30 AM 66.2 °F 64.4 °F 94% 30.06 in 9.0 mi Calm Calm - N/A   Overcast
7:51 AM 66.0 °F 64.9 °F 96% 30.06 in 10.0 mi Calm Calm - N/A   Overcast
7:54 AM 66.2 °F 64.4 °F 94% 30.07 in 10.0 mi Calm Calm - N/A   Overcast
8:07 AM 66.2 °F 64.4 °F 94% 30.06 in 10.0 mi Calm Calm - N/A   Overcast
8:27 AM 66.2 °F 64.4 °F 94% 30.07 in 10.0 mi WNW 3.5 mph - N/A   Overcast
8:39 AM 66.2 °F 64.4 °F 94% 30.07 in 10.0 mi WNW 3.5 mph - N/A   Overcast
8:51 AM 68.0 °F 64.0 °F 87% 30.06 in 10.0 mi Calm Calm - N/A   Overcast
9:34 AM 68.0 °F 64.4 °F 88% 30.08 in 10.0 mi NW 3.5 mph - N/A   Overcast
9:51 AM 68.0 °F 64.9 °F 90% 30.08 in 10.0 mi Calm Calm - N/A   Overcast
10:11 AM 69.8 °F 64.4 °F 83% 30.09 in 10.0 mi NNE 3.5 mph - N/A   Overcast
10:51 AM 69.1 °F 64.9 °F 87% 30.09 in 10.0 mi Calm Calm - 0.00 in Rain Light Rain
11:44 AM 69.8 °F 66.2 °F 88% 30.11 in 10.0 mi Calm Calm - 0.02 in Rain Light Rain
11:51 AM 69.1 °F 64.9 °F 87% 30.10 in 10.0 mi Calm Calm - 0.02 in Rain Light Rain
12:06 PM 69.8 °F 66.2 °F 88% 30.11 in 8.0 mi Calm Calm - 0.00 in Rain Light Rain
12:51 PM 70.0 °F 66.0 °F 87% 30.09 in 10.0 mi North 4.6 mph - 0.01 in Rain Light Rain
1:00 PM 69.8 °F 66.2 °F 88% 30.10 in 10.0 mi North 4.6 mph - 0.00 in Rain Light Rain
1:05 PM 69.8 °F 66.2 °F 88% 30.09 in 10.0 mi NNE 4.6 mph - 0.00 in Rain Light Rain
1:14 PM 69.8 °F 66.2 °F 88% 30.09 in 10.0 mi North 4.6 mph - 0.00 in   Overcast
1:24 PM 71.6 °F 66.2 °F 83% 30.08 in 10.0 mi North 5.8 mph - 0.00 in   Overcast
1:51 PM 69.1 °F 66.0 °F 90% 30.08 in 10.0 mi NNW 6.9 mph - 0.00 in   Overcast
2:04 PM 68.0 °F 64.4 °F 88% 30.10 in 10.0 mi NNW 4.6 mph - N/A   Overcast
2:35 PM 69.8 °F 66.2 °F 88% 30.10 in 10.0 mi Calm Calm - N/A   Overcast
2:44 PM 69.8 °F 66.2 °F 88% 30.10 in 10.0 mi Calm Calm - N/A   Overcast
2:51 PM 69.1 °F 66.0 °F 90% 30.09 in 10.0 mi Calm Calm - N/A   Overcast
3:22 PM 69.8 °F 66.2 °F 88% 30.10 in 10.0 mi Calm Calm - N/A   Overcast
3:32 PM 69.8 °F 66.2 °F 88% 30.10 in 10.0 mi WNW 3.5 mph - N/A   Overcast
3:51 PM 70.0 °F 66.0 °F 87% 30.09 in 10.0 mi Calm Calm - N/A   Overcast
4:19 PM 69.8 °F 66.2 °F 88% 30.10 in 10.0 mi Calm Calm - N/A   Overcast
4:51 PM 70.0 °F 66.0 °F 87% 30.09 in 10.0 mi NNW 3.5 mph - N/A   Overcast
5:51 PM 69.1 °F 64.0 °F 84% 30.09 in 10.0 mi NNW 3.5 mph - N/A   Overcast
6:51 PM 69.1 °F 63.0 °F 81% 30.09 in 10.0 mi Calm Calm - N/A   Overcast
7:51 PM 66.0 °F 63.0 °F 90% 30.10 in 6.0 mi North 3.5 mph - 0.03 in Rain Light Rain
8:04 PM 64.4 °F 62.6 °F 94% 30.12 in 7.0 mi NNW 3.5 mph - 0.00 in Rain Light Rain
8:43 PM 64.4 °F 60.8 °F 88% 30.13 in 6.0 mi North 6.9 mph - 0.01 in Rain Light Rain
8:51 PM 64.0 °F 60.1 °F 87% 30.13 in 4.0 mi NW 4.6 mph - 0.04 in Rain Heavy Rain
9:08 PM 62.6 °F 60.8 °F 94% 30.13 in 3.0 mi Calm Calm - 0.04 in Rain Rain
9:35 PM 62.6 °F 60.8 °F 94% 30.15 in 3.0 mi WNW 3.5 mph - 0.10 in Rain Rain
9:51 PM 61.0 °F 60.1 °F 97% 30.15 in 3.0 mi NW 4.6 mph - 0.14 in Rain Rain
10:16 PM 60.8 °F 59.0 °F 94% 30.14 in 4.0 mi NNW 4.6 mph - 0.04 in Rain Light Rain
10:40 PM 60.8 °F 59.0 °F 94% 30.14 in 5.0 mi NW 4.6 mph - 0.10 in Rain Light Rain
10:46 PM 60.8 °F 59.0 °F 94% 30.14 in 2.5 mi NNW 3.5 mph - 0.14 in Rain Heavy Rain
10:51 PM 60.1 °F 59.0 °F 96% 30.15 in 2.5 mi WNW 4.6 mph - 0.17 in Rain Heavy Rain
11:01 PM 60.8 °F 59.0 °F 94% 30.14 in 5.0 mi NW 4.6 mph - 0.01 in Rain Light Rain
11:36 PM 60.8 °F 59.0 °F 94% 30.13 in 9.0 mi North 4.6 mph - 0.02 in Rain Light Rain
11:51 PM 60.1 °F 59.0 °F 96% 30.13 in 7.0 mi NNW 3.5 mph - 0.02 in Rain Light Rain